This demonstration page uses our WeatherBlox Daily Observations layout. Learn more.

Left ArrowRight Arrow

34.74481, -87.66753

Hourly Observations for July 18, 2022

Temp ( °F °C ) Dew Point ( °F °C ) Humidity (%) Winds ( mph kmh ) Pressure ( in mb ) Visibility ( mi km ) Precip ( " mm )
12:53 am 00:53 Clear 84 28.9 71 21.7 65 65 SSW 10 17 29.91 1013 10 16 0.00 0.00
1:53 am 01:53 Clear 83 28.3 70 21.1 65 65 SSW 9 15 29.90 1013 10 16 0.00 0.00
2:53 am 02:53 Clear 82 27.8 70 21.1 67 67 SSW 9 15 29.89 1012 10 16 0.00 0.00
3:53 am 03:53 Partly Cloudy 82 27.8 71 21.7 69 69 SSW 7 11 29.90 1012 10 16 0.00 0.00
4:53 am 04:53 Mostly Cloudy 81 27.2 71 21.7 72 72 SSW 6 9 29.91 1013 10 16 0.00 0.00
5:53 am 05:53 Sunny 81 27.2 72 22.2 74 74 SW 10 17 29.91 1013 10 16 0.00 0.00
6:53 am 06:53 Mostly Sunny 81 27.2 72 22.2 74 74 SSW 13 20 29.90 1013 10 16 0.00 0.00
7:53 am 07:53 Partly Cloudy 81 27.2 72 22.2 74 74 WSW 14 22 29.93 1014 10 16 0.00 0.00
8:53 am 08:53 Partly Cloudy 80 26.7 69 20.6 69 69 W 9 15 29.96 1014 10 16 0.00 0.00
9:53 am 09:53 Mostly Sunny 80 26.7 68 20 67 67 WSW 10 17 29.96 1015 10 16 0.00 0.00
10:53 am 10:53 Mostly Sunny 80 26.7 69 20.6 69 69 WSW 8 13 29.97 1015 10 16 0.00 0.00
11:53 am 11:53 Cloudy 79 26.1 69 20.6 72 72 SW 12 19 29.99 1016 10 16 0.00 0.00
12:53 pm 12:53 Mostly Cloudy 76 24.4 71 21.7 85 85 SW 6 9 29.97 1015 10 16 0.07 1.78
1:53 pm 13:53 Mostly Sunny 78 25.6 71 21.7 79 79 WSW 7 11 29.95 1014 10 16 0.00 0.00
2:53 pm 14:53 Sunny 79 26.1 68 20 69 69 W 9 15 29.93 1014 10 16 0.00 0.00
3:53 pm 15:53 Sunny 83 28.3 70 21.1 65 65 VRB 3 6 29.92 1013 10 16 0.00 0.00
4:53 pm 16:53 Cloudy 82 27.8 70 21.1 67 67 WSW 5 7 29.91 1013 10 16 0.00 0.00
5:53 pm 17:53 Mostly Cloudy 83 28.3 71 21.7 67 67 ESE 5 7 29.91 1013 10 16 0.00 0.00
6:53 pm 18:53 Cloudy 83 28.3 72 22.2 70 70 S 5 7 29.92 1013 10 16 0.00 0.00
7:53 pm 19:53 Mostly Cloudy 81 27.2 72 22.2 74 74 Calm 29.92 1013 10 16 0.00 0.00
8:53 pm 20:53 Cloudy 79 26.1 73 22.8 82 82 SSE 5 7 29.92 1013 10 16 0.00 0.00
9:53 pm 21:53 Cloudy 78 25.6 73 22.8 85 85 SSE 5 7 29.93 1014 10 16 0.00 0.00
10:53 pm 22:53 Cloudy 78 25.6 74 23.3 87 87 Calm 29.93 1014 10 16 0.00 0.00
11:15 pm 23:15 Mostly Cloudy with Nearby Thunderstorms 77 25 73 22.8 88 88 Calm 29.94 1014 10 16 0.00 0.00
11:30 pm 23:30 Mostly Cloudy 78 25.6 73 22.8 85 85 Calm 29.94 1014 10 16 0.00 0.00
11:53 pm 23:53 Mostly Cloudy 76 24.4 73 22.8 91 91 Calm 29.94 1014 10 16 0.00 0.00

Powered by AerisWeather